Location: Joplin
(37.0842°N, 94.5131°W)
Time: 01:01:34
(UTC-06:00)

OTV 5 (USA 277) - Visible Passes

Search period start: 22 January 2019 00:00
Search period end: 01 February 2019 00:00
Orbit: 339 x 349 km, 54.5° (Epoch: 15 January)

Date Brightness Start Highest point End Pass type
(mag) Time Alt. Az. Time Alt. Az. Time Alt. Az.
22 Jan ? 06:57:09 10° S 06:59:19 19° SE 07:01:30 10° ENE visible
24 Jan ? 06:09:41 10° S 06:11:46 18° SE 06:13:52 10° E visible
25 Jan ? 06:32:22 10° SW 06:35:15 77° SE 06:38:10 10° NE visible
26 Jan ? 05:23:39 16° SE 05:24:13 17° SE 05:26:14 10° E visible
26 Jan ? 06:56:25 10° W 06:58:58 27° NW 07:01:31 10° NNE visible
27 Jan ? 05:47:46 71° ESE 05:47:46 71° ESE 05:50:35 10° NE visible
28 Jan ? 06:11:29 28° NW 06:11:29 28° NW 06:13:59 10° NNE visible
29 Jan ? 06:34:55 11° NW 06:35:21 11° NNW 06:36:22 10° N visible
